| time (UTC) | temp F | wind direction | speed MPH | gust MPH | rain 1hr in | rain 24hr in | rain mn in | humidity % | barometer mb |
| 20260505213031 | 58 | 6 | 11.0 | 17.0 | 0.02 | 0.02 | 0.02 | 94 | 1028.1 |
| 20260505211540 | 58 | 55 | 11.0 | 19.0 | 0.01 | 0.01 | 0.01 | 93 | 1028.1 |
| 20260505204524 | 58 | 29 | 7.0 | 15.0 | 0.00 | 0.00 | 0.00 | 92 | 1028.3 |
| 20260505203006 | 58 | 19 | 9.0 | 22.0 | 0.00 | 0.00 | 0.00 | 90 | 1028.4 |
| 20260505201507 | 59 | 32 | 13.0 | 21.0 | 0.00 | 0.00 | 0.00 | 88 | 1028.3 |
| 20260505200003 | 59 | 46 | 10.0 | 20.0 | 0.00 | 0.00 | 0.00 | 86 | 1028.0 |
| 20260505194502 | 59 | 5 | 10.0 | 17.0 | 0.00 | 0.00 | 0.00 | 86 | 1028.0 |
| 20260505193050 | 59 | 112 | 8.0 | 13.0 | 0.00 | 0.00 | 0.00 | 85 | 1028.0 |
| 20260505191503 | 59 | 67 | 9.0 | 17.0 | 0.00 | 0.00 | 0.00 | 85 | 1027.9 |
| 20260505190003 | 58 | 30 | 9.0 | 17.0 | 0.00 | 0.00 | 0.00 | 85 | 1027.9 |
| 20260505184601 | 58 | 26 | 10.0 | 16.0 | 0.00 | 0.00 | 0.00 | 86 | 1028.0 |
| 20260505183102 | 58 | 45 | 10.0 | 16.0 | 0.00 | 0.00 | 0.00 | 86 | 1028.0 |
| 20260505181559 | 58 | 23 | 4.0 | 12.0 | 0.00 | 0.00 | 0.00 | 85 | 1028.0 |
| 20260505174555 | 58 | 33 | 5.0 | 13.0 | 0.00 | 0.00 | 0.00 | 85 | 1028.2 |
| 20260505173054 | 58 | 20 | 5.0 | 19.0 | 0.00 | 0.00 | 0.00 | 83 | 1028.3 |
| 20260505171556 | 59 | 352 | 8.0 | 12.0 | 0.00 | 0.00 | 0.00 | 81 | 1028.3 |
| 20260505170053 | 58 | 64 | 6.0 | 15.0 | 0.00 | 0.00 | 0.00 | 81 | 1028.3 |
| 20260505164551 | 58 | 65 | 9.0 | 15.0 | 0.00 | 0.00 | 0.00 | 83 | 1028.5 |
| 20260505163050 | 58 | 5 | 7.0 | 15.0 | 0.00 | 0.00 | 0.00 | 83 | 1028.5 |
| 20260505161544 | 59 | 84 | 11.0 | 17.0 | 0.00 | 0.00 | 0.00 | 80 | 1028.8 |
| 20260505151545 | 59 | 354 | 10.0 | 19.0 | 0.00 | 0.00 | 0.00 | 77 | 1029.3 |
| 20260505140109 | 60 | 344 | 10.0 | 15.0 | 0.00 | 0.00 | 0.00 | 73 | 1029.9 |
| 20260505124513 | 58 | 345 | 6.0 | 9.0 | 0.00 | 0.00 | 0.00 | 76 | 1030.3 |
| 20260505123038 | 58 | 329 | 0.0 | 3.0 | 0.00 | 0.00 | 0.00 | 75 | 1030.5 |
| 20260505121524 | 58 | 55 | 2.0 | 6.0 | 0.00 | 0.00 | 0.00 | 75 | 1030.5 |
| 20260505120106 | 58 | 5 | 5.0 | 11.0 | 0.00 | 0.00 | 0.00 | 75 | 1030.5 |
| 20260505114509 | 57 | 36 | 4.0 | 9.0 | 0.00 | 0.00 | 0.00 | 76 | 1030.6 |
| 20260505113105 | 56 | 54 | 3.0 | 6.0 | 0.00 | 0.00 | 0.00 | 77 | 1030.6 |
| 20260505111525 | 56 | 8 | 3.0 | 8.0 | 0.00 | 0.00 | 0.00 | 78 | 1030.6 |
| 20260505101533 | 57 | 42 | 5.0 | 11.0 | 0.00 | 0.00 | 0.00 | 73 | 1031.2 |
| 20260505100024 | 57 | 31 | 5.0 | 10.0 | 0.00 | 0.00 | 0.00 | 72 | 1031.2 |
| 20260505094527 | 57 | 53 | 5.0 | 11.0 | 0.00 | 0.00 | 0.00 | 71 | 1031.1 |
| 20260505093032 | 57 | 25 | 4.0 | 10.0 | 0.00 | 0.00 | 0.00 | 72 | 1031.1 |
| 20260505091525 | 57 | 17 | 3.0 | 10.0 | 0.00 | 0.00 | 0.00 | 72 | 1031.1 |
| 20260505090029 | 57 | 45 | 5.0 | 9.0 | 0.00 | 0.00 | 0.00 | 72 | 1031.0 |
| 20260505084527 | 57 | 95 | 3.0 | 10.0 | 0.00 | 0.00 | 0.00 | 73 | 1031.1 |
| 20260505083020 | 57 | 34 | 7.0 | 14.0 | 0.00 | 0.00 | 0.00 | 72 | 1031.2 |
| 20260505081521 | 57 | 44 | 6.0 | 13.0 | 0.00 | 0.00 | 0.00 | 73 | 1031.3 |
| 20260505080026 | 57 | 41 | 4.0 | 13.0 | 0.00 | 0.00 | 0.00 | 74 | 1031.3 |
| 20260505074518 | 56 | 34 | 0.0 | 6.0 | 0.00 | 0.00 | 0.00 | 75 | 1031.4 |
| 20260505073017 | 56 | 60 | 4.0 | 8.0 | 0.00 | 0.00 | 0.00 | 77 | 1031.5 |
| 20260505071517 | 55 | 48 | 4.0 | 9.0 | 0.00 | 0.00 | 0.00 | 79 | 1031.5 |
| 20260505070022 | 55 | 95 | 3.0 | 9.0 | 0.00 | 0.00 | 0.00 | 80 | 1031.5 |
| 20260505064517 | 55 | 74 | 2.0 | 7.0 | 0.00 | 0.00 | 0.00 | 80 | 1031.4 |
| 20260505063016 | 55 | 43 | 3.0 | 12.0 | 0.00 | 0.00 | 0.00 | 80 | 1031.4 |
| 20260505061519 | 55 | 79 | 2.0 | 8.0 | 0.00 | 0.00 | 0.00 | 80 | 1031.6 |
| 20260505060014 | 55 | 4 | 0.0 | 5.0 | 0.00 | 0.00 | 0.00 | 80 | 1031.5 |
| 20260505054508 | 55 | 81 | 0.0 | 9.0 | 0.00 | 0.00 | 0.00 | 79 | 1031.5 |
| 20260505053015 | 56 | 74 | 3.0 | 12.0 | 0.00 | 0.00 | 0.00 | 79 | 1031.5 |
| 20260505051536 | 57 | 38 | 4.0 | 12.0 | 0.00 | 0.00 | 0.00 | 78 | 1031.5 |
| 20260505041502 | 57 | 15 | 6.0 | 16.0 | 0.00 | 0.00 | 0.00 | 76 | 1031.8 |
| 20260505040059 | 57 | 28 | 7.0 | 14.0 | 0.00 | 0.00 | 0.00 | 75 | 1031.7 |
| 20260505034534 | 58 | 20 | 6.0 | 16.0 | 0.00 | 0.00 | 0.00 | 75 | 1031.8 |
| 20260505033012 | 59 | 45 | 5.0 | 12.0 | 0.00 | 0.00 | 0.00 | 73 | 1031.7 |
| 20260505031535 | 59 | 345 | 10.0 | 15.0 | 0.00 | 0.00 | 0.00 | 72 | 1031.7 |
| 20260505030044 | 59 | 36 | 9.0 | 14.0 | 0.00 | 0.00 | 0.00 | 72 | 1031.6 |
| 20260505024552 | 59 | 349 | 14.0 | 20.0 | 0.00 | 0.00 | 0.00 | 70 | 1031.7 |
| 20260505023002 | 59 | 358 | 10.0 | 18.0 | 0.00 | 0.00 | 0.00 | 71 | 1031.8 |
| 20260505021539 | 59 | 12 | 12.0 | 19.0 | 0.00 | 0.00 | 0.00 | 71 | 1032.0 |
| 20260505014516 | 58 | 27 | 15.0 | 21.0 | 0.00 | 0.00 | 0.00 | 72 | 1032.1 |
| 20260505013033 | 58 | 14 | 9.0 | 18.0 | 0.00 | 0.00 | 0.00 | 73 | 1032.2 |
| 20260505011544 | 58 | 4 | 11.0 | 17.0 | 0.00 | 0.00 | 0.00 | 73 | 1032.4 |
| 20260505010057 | 58 | 15 | 9.0 | 14.0 | 0.00 | 0.00 | 0.00 | 74 | 1032.6 |
| 20260505004534 | 58 | 89 | 8.0 | 14.0 | 0.00 | 0.00 | 0.00 | 74 | 1032.9 |
| 20260505003005 | 58 | 11 | 15.0 | 19.0 | 0.00 | 0.00 | 0.00 | 73 | 1033.1 |
| 20260505001554 | 58 | 22 | 8.0 | 17.0 | 0.00 | 0.00 | 0.00 | 75 | 1033.3 |
| 20260505000039 | 58 | 5 | 10.0 | 17.0 | 0.00 | 0.00 | 0.00 | 74 | 1033.5 |
| 20260504234525 | 58 | 60 | 7.0 | 15.0 | 0.00 | 0.00 | 0.00 | 74 | 1033.7 |
| 20260504233010 | 58 | 6 | 7.0 | 14.0 | 0.00 | 0.00 | 0.00 | 72 | 1033.9 |
| 20260504231558 | 58 | 12 | 7.0 | 14.0 | 0.00 | 0.00 | 0.00 | 73 | 1033.9 |
| 20260504224544 | 58 | 39 | 9.0 | 16.0 | 0.00 | 0.00 | 0.00 | 73 | 1034.1 |
| 20260504223035 | 58 | 36 | 12.0 | 18.0 | 0.00 | 0.00 | 0.00 | 70 | 1034.0 |
| 20260504221525 | 58 | 17 | 9.0 | 18.0 | 0.00 | 0.00 | 0.00 | 74 | 1034.0 |
| 20260504220036 | 58 | 357 | 11.0 | 20.0 | 0.00 | 0.00 | 0.00 | 72 | 1034.1 |
| 20260504214521 | 57 | 25 | 9.0 | 17.0 | 0.00 | 0.00 | 0.00 | 71 | 1034.2 |